Stations météo

réclame
Mon MeteoGroup
Stockholm/Bromma, Suède (2464): Température de l'air & dewpoint: 22.05.2018 12:00:00 - 28.05.2018 12:00:00 (CEST)Stockholm/Bromma, Suède (2464): Vitesse du vent: 22.05.2018 12:00:00 - 28.05.2018 12:00:00 (CEST)Stockholm/Bromma, Suède (2464): Direction du vent: 22.05.2018 12:00:00 - 28.05.2018 12:00:00 (CEST)Stockholm/Bromma, Suède (2464): reduced air pressure: 22.05.2018 12:00:00 - 28.05.2018 12:00:00 (CEST)Stockholm/Bromma, Suède (2464): visibility: 22.05.2018 12:00:00 - 28.05.2018 12:00:00 (CEST)
Date & Time tt [°C] td [°C] ff [km/h] ff [knt] dd ppp [hPa] vv [km]
28.05.2018 12:00:00 - - - - - - -
28.05.2018 11:00:00 21,1 4,2 11 6 ESE 1031,0 10
28.05.2018 10:00:00 19,7 5,4 5 3 ENE 1031,0 10
28.05.2018 09:00:00 17,3 6,2 4 2 - 1031,4 10
28.05.2018 08:00:00 14,8 5,4 5 3 - 1031,6 10
28.05.2018 07:00:00 12,1 4,1 8 4 NE 1031,4 10
28.05.2018 06:00:00 10,5 2,6 4 2 - 1031,5 10
28.05.2018 05:00:00 9,3 1,7 9 5 NNE 1031,3 10
28.05.2018 04:00:00 9,2 1,1 5 3 - 1031,3 10
28.05.2018 03:00:00 9,7 0,6 8 4 N 1031,5 10
28.05.2018 02:00:00 9,3 0,5 5 3 N 1031,7 10
28.05.2018 01:00:00 11,3 -0,8 8 4 NNE 1031,5 10
28.05.2018 00:00:00 12,0 -0,2 9 5 NNE 1031,4 10
27.05.2018 23:00:00 13,5 -0,2 11 6 NE 1031,3 10
27.05.2018 22:00:00 14,9 -1,7 13 7 NE 1031,0 10
27.05.2018 21:00:00 16,5 -3,6 15 8 NE 1030,8 10
27.05.2018 20:00:00 18,4 -2,5 16 9 ENE 1030,5 10
27.05.2018 19:00:00 19,8 -3,2 15 8 NE 1030,3 10
27.05.2018 18:00:00 20,6 -1,3 15 8 NNE 1030,2 10
27.05.2018 17:00:00 21,3 -0,1 18 10 NNE 1030,4 10
27.05.2018 16:00:00 21,8 0,9 18 10 NE 1030,5 10
27.05.2018 15:00:00 22,4 0,8 21 11 NE 1030,7 10
27.05.2018 14:00:00 23,6 2,4 16 9 N 1030,8 10
27.05.2018 13:00:00 23,0 2,5 18 10 NNE 1030,8 10
27.05.2018 12:00:00 22,3 0,8 16 9 N 1031,0 10
27.05.2018 11:00:00 21,1 1,9 16 9 NE 1031,1 10
27.05.2018 10:00:00 20,5 2,8 13 7 NNE 1031,0 10
27.05.2018 09:00:00 18,9 4,6 15 8 NNE 1030,7 10
27.05.2018 08:00:00 16,8 6,3 13 7 NE 1030,5 10
27.05.2018 07:00:00 15,2 6,2 11 6 NNE 1030,2 10
27.05.2018 06:00:00 13,0 6,8 13 7 NNE 1030,1 10
27.05.2018 05:00:00 11,4 7,3 8 4 N 1029,9 10
27.05.2018 04:00:00 11,6 7,3 8 4 N 1029,5 10
27.05.2018 03:00:00 10,6 6,2 5 3 N 1029,4 10
27.05.2018 02:00:00 12,0 4,2 4 2 - 1029,2 10
27.05.2018 01:00:00 12,0 3,5 0 0 N 1029,0 10
27.05.2018 00:00:00 14,1 3,5 5 3 N 1029,0 10
26.05.2018 23:00:00 14,6 4,9 0 0 N 1028,5 10
26.05.2018 22:00:00 17,0 3,6 9 5 E 1028,4 10
26.05.2018 21:00:00 19,4 3,9 15 8 ENE 1028,0 10
26.05.2018 20:00:00 22,4 7,4 9 5 SSE 1027,2 10
26.05.2018 19:00:00 23,4 7,5 11 6 S 1026,9 10
26.05.2018 18:00:00 24,0 7,2 15 8 ESE 1027,0 10
26.05.2018 17:00:00 25,8 4,8 9 5 SSE 1026,9 10
26.05.2018 16:00:00 25,4 5,0 5 3 - 1027,1 10
26.05.2018 15:00:00 24,7 4,4 5 3 - 1027,6 10
26.05.2018 14:00:00 24,2 4,5 5 3 - 1028,1 10
26.05.2018 13:00:00 23,0 5,0 9 5 - 1028,3 10
26.05.2018 12:00:00 22,1 5,1 8 4 E 1028,5 10
26.05.2018 11:00:00 21,9 4,5 5 3 W 1028,8 10
26.05.2018 10:00:00 20,4 4,8 5 3 - 1029,0 10
26.05.2018 09:00:00 18,8 4,5 0 0 N 1028,8 10
26.05.2018 08:00:00 17,3 3,5 0 0 N 1029,1 10
26.05.2018 07:00:00 14,8 6,1 0 0 N 1029,1 10
26.05.2018 06:00:00 10,7 6,1 0 0 N 1028,9 10
26.05.2018 05:00:00 8,0 5,5 0 0 N 1029,0 10
26.05.2018 04:00:00 6,5 4,8 0 0 N 1029,1 10
26.05.2018 03:00:00 7,5 5,3 0 0 N 1029,2 10
26.05.2018 02:00:00 8,9 4,7 0 0 N 1028,9 10
26.05.2018 01:00:00 11,6 4,6 5 3 SSE 1028,9 10
26.05.2018 00:00:00 12,5 3,2 9 5 SSE 1028,9 10
25.05.2018 23:00:00 14,0 2,6 8 4 SE 1028,6 10
25.05.2018 22:00:00 15,5 2,6 9 5 ESE 1028,5 10
25.05.2018 21:00:00 17,4 2,2 9 5 E 1028,2 10
25.05.2018 20:00:00 18,5 2,3 13 7 ESE 1028,1 10
25.05.2018 19:00:00 19,7 1,2 15 8 E 1028,2 10
25.05.2018 18:00:00 20,6 1,4 15 8 E 1028,3 10
25.05.2018 17:00:00 20,9 1,7 16 9 E 1028,6 10
25.05.2018 16:00:00 21,6 1,8 18 10 E 1028,7 10
25.05.2018 15:00:00 21,4 1,6 18 10 ESE 1029,1 10
25.05.2018 14:00:00 21,9 3,5 16 9 E 1029,2 10
25.05.2018 13:00:00 21,8 3,5 16 9 E 1029,4 10
25.05.2018 12:00:00 21,9 3,5 16 9 ESE 1029,5 10
25.05.2018 11:00:00 21,6 3,7 11 6 SE 1029,5 10
25.05.2018 10:00:00 20,1 2,9 11 6 SE 1029,6 10
25.05.2018 09:00:00 19,3 2,2 11 6 SSE 1029,9 10
25.05.2018 08:00:00 17,7 0,8 5 3 - 1029,8 10
25.05.2018 07:00:00 15,4 1,1 5 3 SE 1029,8 10
25.05.2018 06:00:00 13,3 5,9 4 2 ESE 1029,8 10
25.05.2018 05:00:00 7,6 4,2 0 0 N 1029,7 10
25.05.2018 04:00:00 6,8 4,5 2 1 WSW 1029,9 10
25.05.2018 03:00:00 7,3 3,7 0 0 N 1029,7 10
25.05.2018 02:00:00 8,4 3,4 0 0 N 1029,6 10
25.05.2018 01:00:00 9,4 2,9 4 2 - 1029,5 10
25.05.2018 00:00:00 10,4 3,0 5 3 S 1029,5 10
24.05.2018 23:00:00 11,8 2,0 5 3 SE 1029,3 10
24.05.2018 22:00:00 14,1 0,7 8 4 SSE 1029,3 10
24.05.2018 21:00:00 17,1 -0,6 11 6 SSE 1029,2 10
24.05.2018 20:00:00 19,2 0,2 13 7 SSE 1028,9 10
24.05.2018 19:00:00 20,8 0,0 13 7 ESE 1028,7 10
24.05.2018 18:00:00 21,8 1,4 11 6 ESE 1028,9 45
24.05.2018 17:00:00 22,8 2,3 8 4 E 1029,1 10
24.05.2018 16:00:00 22,1 1,7 5 3 - 1029,7 10
24.05.2018 15:00:00 21,6 -1,0 8 4 SE 1030,4 10
24.05.2018 14:00:00 21,1 -0,8 9 5 ESE 1030,9 10
24.05.2018 13:00:00 20,3 -1,5 13 7 ENE 1031,4 10
24.05.2018 12:00:00 19,5 -0,5 13 7 ENE 1031,5 10
24.05.2018 11:00:00 18,4 -0,4 13 7 ENE 1032,1 10
24.05.2018 10:00:00 16,9 -0,8 11 6 ENE 1032,2 10
24.05.2018 09:00:00 15,4 0,0 9 5 E 1032,2 10
24.05.2018 08:00:00 13,2 2,4 8 4 NE 1032,1 10
24.05.2018 07:00:00 11,0 2,8 9 5 NNE 1031,9 10
24.05.2018 06:00:00 9,5 2,4 8 4 N 1031,8 10
24.05.2018 05:00:00 8,5 1,4 8 4 NNE 1031,2 10
24.05.2018 04:00:00 7,9 0,8 8 4 N 1030,9 10
24.05.2018 03:00:00 7,4 1,3 8 4 N 1030,8 10
24.05.2018 02:00:00 7,0 1,9 4 2 NW 1030,2 10
24.05.2018 01:00:00 8,6 3,2 5 3 - 1029,9 10
24.05.2018 00:00:00 10,1 3,1 5 3 - 1029,6 10
23.05.2018 23:00:00 13,1 2,6 9 5 NNE 1029,4 10
23.05.2018 22:00:00 14,4 3,2 11 6 NE 1029,2 10
23.05.2018 21:00:00 15,9 4,3 13 7 NNE 1028,4 10
23.05.2018 20:00:00 17,2 4,5 15 8 NE 1027,6 10
23.05.2018 19:00:00 18,2 4,4 15 8 N 1027,0 10
23.05.2018 18:00:00 19,1 5,5 15 8 NNE 1026,5 10
23.05.2018 17:00:00 20,0 6,3 16 9 N 1026,3 10
23.05.2018 16:00:00 19,6 6,7 18 10 N 1026,0 10
23.05.2018 15:00:00 20,0 6,7 15 8 N 1025,7 10
23.05.2018 14:00:00 19,2 7,3 16 9 N 1025,2 10
23.05.2018 13:00:00 19,3 8,3 18 10 N 1024,5 10
23.05.2018 12:00:00 19,3 8,6 18 10 NNW 1023,7 10
23.05.2018 11:00:00 18,9 8,8 18 10 NW 1023,2 45
23.05.2018 10:00:00 18,3 8,6 15 8 NNW 1022,6 10
23.05.2018 09:00:00 17,0 8,4 15 8 NNW 1022,1 10
23.05.2018 08:00:00 15,9 9,1 13 7 N 1021,5 10
23.05.2018 07:00:00 14,8 8,1 13 7 NW 1020,7 10
23.05.2018 06:00:00 12,9 9,2 4 2 - 1020,0 10
23.05.2018 05:00:00 8,8 7,2 0 0 N 1019,4 10
23.05.2018 04:00:00 8,9 7,3 0 0 N 1019,2 10
23.05.2018 03:00:00 9,3 6,7 0 0 N 1019,2 10
23.05.2018 02:00:00 9,8 7,2 0 0 N 1019,2 10
23.05.2018 01:00:00 10,8 7,3 0 0 N 1018,9 10
23.05.2018 00:00:00 11,9 7,2 5 3 S 1018,9 10
22.05.2018 23:00:00 12,8 6,6 5 3 - 1018,6 10
22.05.2018 22:00:00 14,7 6,8 8 4 SSE 1018,6 10
22.05.2018 21:00:00 18,2 7,0 11 6 SSE 1018,2 10
22.05.2018 20:00:00 19,7 6,1 13 7 SSE 1018,2 10
22.05.2018 19:00:00 20,2 5,0 15 8 SE 1018,3 10
22.05.2018 18:00:00 21,3 4,4 15 8 SSE 1018,1 10
22.05.2018 17:00:00 22,5 4,1 15 8 SSW 1018,5 10
22.05.2018 16:00:00 22,9 4,4 16 9 SSE 1018,7 10
22.05.2018 15:00:00 24,1 3,9 13 7 SSE 1019,1 10
22.05.2018 14:00:00 22,4 4,0 11 6 SSE 1019,4 10
22.05.2018 13:00:00 22,8 3,8 8 4 E 1019,8 10
22.05.2018 12:00:00 22,1 3,7 5 3 - 1020,6 10

tt = Température de l'air
td = dewpoint
ff = Vitesse du vent
dd = Direction du vent
ppp = reduced air pressure
vv = visibility

stations d'obs. à proximité